Regional Weather Roundup
Issued by NWS

Home | Current Version | Previous Version | Graphics & Text | Print | Product List | Glossary On
Versions: 1 2 3 4 5 6 7 8 9 10 11 12 13 14 15 16 17 18 19 20 21 22 23 24 25 26 27 28 29 30 31 32 33 34 35 36 37 38 39 40 41 42 43 44 45 46 47 48 49 50
000
ASUS43 KMKX 242121
RWRWI

WISCONSIN REGIONAL WEATHER ROUNDUP
NATIONAL WEATHER SERVICE MILWAUKEE/SULLIVAN WI
400 PM CDT SAT JUN 24 2017

NOTE: "FAIR" INDICATES FEW OR NO CLOUDS BELOW 12,000 FEET WITH NO
SIGNIFICANT WEATHER AND/OR OBSTRUCTIONS TO VISIBILITY.

WIZ001-002-006>008-014>016-023>028-242200-
NORTHWEST WISCONSIN

CITY           SKY/WX    TMP DP  RH WIND       PRES   REMARKS
SUPERIOR ARPT  NOT AVBL
ASHLAND        CLOUDY    60  49  66 W14       29.94S
HAYWARD        LGT RAIN  56  48  74 N7        29.96R
SIREN          CLOUDY    61  43  52 NW8       29.98R
CUMBERLAND     PTSUNNY   61  41  48 W18G25    29.98S
RICE LAKE      CLOUDY    57  44  62 SW12      30.01R
CHETEK         CLOUDY    55  43  64 W8G17     30.00R
LADYSMITH      CLOUDY    61  47  59 W9        29.98F
EAU CLAIRE     CLOUDY    61  42  49 NW15G23   29.97S
MENOMONIE      PTSUNNY   59  44  58 N13       29.99S
NEW RICHMOND   LGT RAIN  52  45  76 W12G21    30.02R
OSCEOLA        CLOUDY    57  47  69 SW10      30.04S
$$

WIZ003>005-009-010-017-018-242200-
NORTH CENTRAL WISCONSIN

CITY           SKY/WX    TMP DP  RH WIND       PRES   REMARKS
MANITOWISH WTR CLOUDY    57  52  82 NW10G18   29.93F
ARBOR VITAE    CLOUDY    59  55  84 W8        29.93S
WOODRUFF       CLOUDY    59  55  84 W8        29.93S
RHINELANDER    CLOUDY    58  50  75 NW8G17    29.94R
EAGLE RIVER    HVY RAIN  52  50  93 W9        29.94R
LAND O LAKES   LGT RAIN  55  50  83 W10G20    29.95R
PHILLIPS       CLOUDY    59  48  67 NW9       29.94R
TOMAHAWK       NOT AVBL
MEDFORD        CLOUDY    61  46  56 NW10G18   29.95F
MERRILL        MOSUNNY   63  45  51 NW12      29.94S
$$

WIZ029-030-035-036-043>047-242200-
CENTRAL WISCONSIN

CITY           SKY/WX    TMP DP  RH WIND       PRES   REMARKS
WAUSAU         MOSUNNY   66  44  45 W18G25    29.93S
MOSINEE        PTSUNNY   64  45  48 W9G20     29.96S
MARSHFIELD     MOSUNNY   65  42  43 W17G26    29.96F
STEVENS POINT  MOSUNNY   63  41  44 W13G24    29.97R
WAUPACA        MOSUNNY   69  40  34 W16G22    29.95F
WAUTOMA        PTSUNNY   66  43  43 W17G24    29.97S
WISC RAPIDS    MOSUNNY   68  43  40 NW10      29.98F
CAMP DOUGLAS   PTSUNNY   64  46  52 W14       29.99F
$$

WIZ011>013-019>022-031-037>040-048>050-242200-
NORTHEAST WISCONSIN

CITY           SKY/WX    TMP DP  RH WIND       PRES   REMARKS
ANTIGO         CLOUDY    63  46  54 W13G18    29.93S
SHAWANO        CLOUDY    68  44  41 W13G18    29.92S
OCONTO         CLOUDY    67  49  53 W13G18    29.90S
STURGEON BAY     N/A     64  56  75 NW9         N/A
GREEN BAY      PTSUNNY   68  46  45 W17G25    29.92S
MANITOWOC      PTSUNNY   70  44  39 W15G22    29.93S
APPLETON       PTSUNNY   66  37  34 W22       29.94R
CLINTONVILLE   PTSUNNY   68  41  37 W14G22    29.93S
OSHKOSH        PTSUNNY   68  44  42 W13G25    29.94S
$$

WIZ032>034-041-042-053>061-242200-
SOUTHWEST WISCONSIN

CITY           SKY/WX    TMP DP  RH WIND       PRES   REMARKS
LA CROSSE      LGT RAIN  68  44  42 W17       30.02R
SPARTA         PTSUNNY   69  44  41 W10G21    29.99F
VIROQUA        CLOUDY    63  46  52 W8        30.02F
BOSCOBEL       MOSUNNY   72  43  35 W13G22    30.03F
PRAIRIE DU CHI MOSUNNY   69  40  34 W7        30.02F
PLATTEVILLE    MOSUNNY   70  44  38 W21G28    30.05S
$$

WIZ056-057-062-063-064-067-068-242200-
SOUTH CENTRAL WISCONSIN

CITY           SKY/WX    TMP DP  RH WIND       PRES   REMARKS
REEDSBURG      MOSUNNY   68  45  42 W16G22    29.99F
BARABOO/DELLS  PTSUNNY   69  42  37 W12G17    30.00S
LONE ROCK      SUNNY     70  43  37 W16       30.01F
MINERAL POINT  MOSUNNY   68  41  37 W14G23    30.04S
MADISON        MOSUNNY   67  42  40 NW14G24   30.00R
MIDDLETON      PTSUNNY   69  42  37 W16G28    30.02S
WATERTOWN      PTSUNNY   67  47  48 W17G24    29.98F
MONROE         SUNNY     68  39  34 W21G26    30.03F
JANESVILLE     MOSUNNY   72  39  30 W21G31    29.99F
$$

WIZ051-052-058>065-066-070>072-242200-
SOUTHEAST WISCONSIN

CITY           SKY/WX    TMP DP  RH WIND       PRES   REMARKS
MILWAUKEE      MOSUNNY   73  47  39 W16G23    29.96S
WAUKESHA       PTSUNNY   64  48  55 W17       29.98S
MILWAUKEE/TIMM PTSUNNY   68  41  37 W15G23    29.97S
RACINE         MOSUNNY   71  46  40 W9G18     29.97F
KENOSHA        MOSUNNY   72  49  44 W18G24    29.97S
FOND DU LAC    MOSUNNY   67  43  41 W18G25    29.95S
SHEBOYGAN      MOSUNNY   70  49  47 W15G24    29.93S
WEST BEND      PTSUNNY   68  45  42 W15G25    29.96F
JUNEAU         PTSUNNY   64  47  54 W7G20     29.98F
$$

LSZ147-162-242200-
LAKE SUPERIOR

STATION/POSITION TIME  TEMP    WIND        PRES    WAVE
                       AIR SEA DIR/SP/G            HT/PER
                 (UTC) (F)     (DEG/KT/KT) (MB)    (FT/S)
W MID LAKE BUOY  2050   45 39  250/  6/  6 1012.9R   1/ 4
DEVILS ISLAND    2100   54     250/ 16/ 18 1013.2R
SAXON HARBOR     2040   61     280/  7/ 10 1013.2R
$$

LMZ867-665-643>646-242200-
LAKE MICHIGAN

STATION/POSITION TIME  TEMP    WIND        PRES    WAVE
                       AIR SEA DIR/SP/G            HT/PER
                 (UTC) (F)     (DEG/KT/KT) (MB)    (FT/S)
CHAMBERS ISLAND  2040   59     250/  5/ 12 1012.5R
S GREEN BAY BUOY 2100   66     260/ 16/ 19 1012.5
N MID LAKE BUOY  2050   58 58  260/ 10/ 14 1012.7R   1
NORTHPORT PIER   2040   61     270/  5/  7 1012.2S
KEWAUNEE LAKESHO 2054   68     270/ 11/ 17 1012.6R
SHEBOYGAN LAKESH 2100   68     280/ 19/ 22 1013.2S
PORT WASHINGTON  2040   71     280/  7/ 21 1014.6S
ATWATER BUOY     2009   67 60  280/ 16/ 19 1014.5S
MILWAUKEE LAKESH 2100   69     280/ 13/ 18   N/A
S MID LAKE BUOY  2050   64 63  300/  6/  8 1014.8S   1/ 3
KENOSHA   LAKESH 2100   71     270/ 16/ 20 1014.6
$$

TC  - TEMPERATURE IN CELSIUS
VSB - VISIBILITY IN STATUTE MILES
WCI - WIND CHILL INDEX
HX  - HEAT INDEX





USA.gov is the U.S. government's official web portal to all federal, state and local government web resources and services.